| time (UTC) | temp C | wind direction | speed KPH | gust KPH | rain 1hr cm | rain 24hr cm | rain mn cm | humidity % | barometer mb |
| 20260503225705 | 10 | 165 | 9.7 | 19.3 | 0.00 | 0.00 | 0.00 | 59 | 1014.3 |
| 20260503225514 | 10 | 213 | 8.0 | 19.3 | 0.00 | 0.00 | 0.00 | 59 | 1014.3 |
| 20260503225420 | 10 | 232 | 8.0 | 17.7 | 0.00 | 0.00 | 0.00 | 58 | 1014.3 |
| 20260503225412 | 10 | 213 | 8.0 | 17.7 | 0.00 | 0.00 | 0.00 | 58 | 1014.4 |
| 20260503224906 | 10 | 258 | 9.7 | 17.7 | 0.00 | 0.00 | 0.00 | 58 | 1014.3 |
| 20260503224813 | 10 | 241 | 9.7 | 17.7 | 0.00 | 0.00 | 0.00 | 58 | 1014.3 |
| 20260503224705 | 10 | 246 | 9.7 | 17.7 | 0.00 | 0.00 | 0.00 | 58 | 1014.3 |
| 20260503224506 | 10 | 238 | 9.7 | 17.7 | 0.00 | 0.00 | 0.00 | 59 | 1014.3 |
| 20260503224320 | 10 | 226 | 9.7 | 17.7 | 0.00 | 0.00 | 0.00 | 59 | 1014.4 |
| 20260503224305 | 10 | 225 | 8.0 | 17.7 | 0.00 | 0.00 | 0.00 | 59 | 1014.4 |
| 20260503224105 | 10 | 236 | 9.7 | 17.7 | 0.00 | 0.00 | 0.00 | 59 | 1014.4 |
| 20260503223904 | 10 | 265 | 9.7 | 17.7 | 0.00 | 0.00 | 0.00 | 59 | 1014.3 |
| 20260503223811 | 10 | 207 | 9.7 | 17.7 | 0.00 | 0.00 | 0.00 | 59 | 1014.3 |
| 20260503223706 | 10 | 196 | 8.0 | 17.7 | 0.00 | 0.00 | 0.00 | 59 | 1014.3 |
| 20260503223505 | 10 | 164 | 8.0 | 17.7 | 0.00 | 0.00 | 0.00 | 58 | 1014.4 |
| 20260503223322 | 10 | 239 | 6.4 | 16.1 | 0.00 | 0.00 | 0.00 | 58 | 1014.4 |
| 20260503223305 | 10 | 240 | 6.4 | 16.1 | 0.00 | 0.00 | 0.00 | 58 | 1014.4 |
| 20260503223151 | 10 | 228 | 6.4 | 16.1 | 0.00 | 0.00 | 0.00 | 58 | 1014.4 |
| 20260503223054 | 10 | 244 | 6.4 | 17.7 | 0.00 | 0.00 | 0.00 | 58 | 1014.4 |
| 20260503222955 | 10 | 221 | 6.4 | 17.7 | 0.00 | 0.00 | 0.00 | 58 | 1014.5 |
| 20260503222924 | 10 | 223 | 8.0 | 17.7 | 0.00 | 0.00 | 0.00 | 58 | 1014.4 |
| 20260503222526 | 10 | 209 | 8.0 | 17.7 | 0.00 | 0.00 | 0.00 | 59 | 1014.5 |
| 20260503222106 | 10 | 217 | 8.0 | 17.7 | 0.00 | 0.00 | 0.00 | 59 | 1014.5 |
| 20260503221905 | 10 | 213 | 8.0 | 16.1 | 0.00 | 0.00 | 0.00 | 59 | 1014.4 |
| 20260503221806 | 10 | 248 | 8.0 | 16.1 | 0.00 | 0.00 | 0.00 | 59 | 1014.5 |
| 20260503221705 | 10 | 273 | 8.0 | 16.1 | 0.00 | 0.00 | 0.00 | 60 | 1014.5 |
| 20260503221519 | 10 | 255 | 8.0 | 16.1 | 0.00 | 0.00 | 0.00 | 59 | 1014.5 |
| 20260503221423 | 10 | 258 | 8.0 | 16.1 | 0.00 | 0.00 | 0.00 | 59 | 1014.3 |
| 20260503221415 | 10 | 265 | 8.0 | 16.1 | 0.00 | 0.00 | 0.00 | 59 | 1014.3 |
| 20260503220905 | 10 | 224 | 8.0 | 16.1 | 0.00 | 0.00 | 0.00 | 59 | 1014.4 |
| 20260503220806 | 10 | 228 | 8.0 | 16.1 | 0.00 | 0.00 | 0.00 | 59 | 1014.5 |
| 20260503220707 | 10 | 253 | 8.0 | 16.1 | 0.00 | 0.00 | 0.00 | 59 | 1014.5 |
| 20260503220504 | 10 | 275 | 6.4 | 12.9 | 0.00 | 0.00 | 0.00 | 58 | 1014.4 |
| 20260503220315 | 10 | 263 | 6.4 | 12.9 | 0.00 | 0.00 | 0.00 | 58 | 1014.4 |
| 20260503220303 | 10 | 269 | 6.4 | 12.9 | 0.00 | 0.00 | 0.00 | 58 | 1014.4 |
| 20260503215904 | 10 | 225 | 8.0 | 14.5 | 0.00 | 0.00 | 0.00 | 58 | 1014.4 |
| 20260503215810 | 10 | 239 | 8.0 | 14.5 | 0.00 | 0.00 | 0.00 | 57 | 1014.5 |
| 20260503215712 | 10 | 261 | 8.0 | 14.5 | 0.00 | 0.00 | 0.00 | 57 | 1014.5 |
| 20260503215611 | 10 | 256 | 9.7 | 17.7 | 0.00 | 0.00 | 0.00 | 56 | 1014.4 |
| 20260503215523 | 10 | 241 | 8.0 | 17.7 | 0.00 | 0.00 | 0.00 | 56 | 1014.4 |
| 20260503215102 | 11 | 227 | 6.4 | 17.7 | 0.00 | 0.00 | 0.00 | 56 | 1014.5 |
| 20260503214921 | 11 | 205 | 4.8 | 17.7 | 0.00 | 0.00 | 0.00 | 56 | 1014.5 |
| 20260503214850 | 11 | 240 | 3.2 | 17.7 | 0.00 | 0.00 | 0.00 | 56 | 1014.5 |
| 20260503214821 | 11 | 232 | 3.2 | 17.7 | 0.00 | 0.00 | 0.00 | 55 | 1014.4 |
| 20260503214715 | 11 | 233 | 1.6 | 14.5 | 0.00 | 0.00 | 0.00 | 56 | 1014.4 |
| 20260503214410 | 11 | 250 | 0.0 | 8.0 | 0.00 | 0.00 | 0.00 | 55 | 1014.4 |
| 20260503213902 | 11 | 238 | 1.6 | 11.3 | 0.00 | 0.00 | 0.00 | 55 | 1014.3 |
| 20260503213804 | 11 | 223 | 1.6 | 11.3 | 0.00 | 0.00 | 0.00 | 55 | 1014.3 |
| 20260503213702 | 11 | 258 | 3.2 | 11.3 | 0.00 | 0.00 | 0.00 | 55 | 1014.3 |
| 20260503213539 | 11 | 190 | 3.2 | 11.3 | 0.00 | 0.00 | 0.00 | 54 | 1014.4 |
| 20260503213451 | 11 | 197 | 3.2 | 11.3 | 0.00 | 0.00 | 0.00 | 54 | 1014.2 |
| 20260503213444 | 11 | 230 | 3.2 | 11.3 | 0.00 | 0.00 | 0.00 | 54 | 1014.2 |
| 20260503213352 | 11 | 228 | 3.2 | 11.3 | 0.00 | 0.00 | 0.00 | 55 | 1014.4 |
| 20260503213016 | 11 | 259 | 3.2 | 12.9 | 0.00 | 0.00 | 0.00 | 55 | 1014.3 |
| 20260503212945 | 11 | 266 | 3.2 | 12.9 | 0.00 | 0.00 | 0.00 | 55 | 1014.3 |
| 20260503212519 | 11 | 223 | 3.2 | 12.9 | 0.00 | 0.00 | 0.00 | 55 | 1014.2 |
| 20260503212100 | 11 | 232 | 3.2 | 12.9 | 0.00 | 0.00 | 0.00 | 55 | 1014.3 |
| 20260503211857 | 11 | 280 | 4.8 | 12.9 | 0.00 | 0.00 | 0.00 | 56 | 1014.3 |
| 20260503211804 | 11 | 212 | 3.2 | 11.3 | 0.00 | 0.00 | 0.00 | 56 | 1014.2 |
| 20260503211715 | 11 | 224 | 4.8 | 11.3 | 0.00 | 0.00 | 0.00 | 56 | 1014.2 |
| 20260503211610 | 10 | 228 | 4.8 | 14.5 | 0.00 | 0.00 | 0.00 | 57 | 1014.2 |
| 20260503211258 | 10 | 219 | 6.4 | 14.5 | 0.00 | 0.00 | 0.00 | 57 | 1014.2 |
| 20260503211058 | 10 | 260 | 4.8 | 14.5 | 0.00 | 0.00 | 0.00 | 57 | 1014.1 |
| 20260503210859 | 10 | 282 | 4.8 | 14.5 | 0.00 | 0.00 | 0.00 | 57 | 1014.1 |
| 20260503210805 | 10 | 260 | 6.4 | 14.5 | 0.00 | 0.00 | 0.00 | 57 | 1014.2 |
| 20260503210715 | 10 | 281 | 4.8 | 14.5 | 0.00 | 0.00 | 0.00 | 57 | 1014.2 |
| 20260503210611 | 10 | 261 | 4.8 | 12.9 | 0.00 | 0.00 | 0.00 | 58 | 1014.2 |
| 20260503210257 | 10 | 286 | 3.2 | 12.9 | 0.00 | 0.00 | 0.00 | 57 | 1014.2 |
| 20260503210105 | 11 | 207 | 3.2 | 12.9 | 0.00 | 0.00 | 0.00 | 57 | 1014.1 |
| 20260503205854 | 11 | 219 | 1.6 | 12.9 | 0.00 | 0.00 | 0.00 | 57 | 1014.1 |
| 20260503205804 | 11 | 254 | 1.6 | 12.9 | 0.00 | 0.00 | 0.00 | 57 | 1014.1 |
| 20260503205655 | 11 | 228 | 1.6 | 12.9 | 0.00 | 0.00 | 0.00 | 57 | 1014.1 |
| 20260503205454 | 11 | 254 | 0.0 | 6.4 | 0.00 | 0.00 | 0.00 | 56 | 1014.1 |
| 20260503205310 | 11 | 261 | 0.0 | 4.8 | 0.00 | 0.00 | 0.00 | 56 | 1014.1 |
| 20260503205254 | 11 | 261 | 0.0 | 4.8 | 0.00 | 0.00 | 0.00 | 56 | 1014.1 |
| 20260503205054 | 11 | 255 | 0.0 | 0.0 | 0.00 | 0.00 | 0.00 | 55 | 1014.1 |
| 20260503204849 | 11 | 253 | 0.0 | 0.0 | 0.00 | 0.00 | 0.00 | 55 | 1014.2 |
| 20260503204805 | 11 | 258 | 0.0 | 0.0 | 0.00 | 0.00 | 0.00 | 55 | 1014.2 |
| 20260503204651 | 11 | 252 | 0.0 | 0.0 | 0.00 | 0.00 | 0.00 | 55 | 1014.1 |
| 20260503204449 | 11 | 227 | 0.0 | 0.0 | 0.00 | 0.00 | 0.00 | 55 | 1014.1 |
| 20260503204305 | 11 | 221 | 0.0 | 0.0 | 0.00 | 0.00 | 0.00 | 54 | 1014.1 |
| 20260503204248 | 11 | 253 | 0.0 | 0.0 | 0.00 | 0.00 | 0.00 | 54 | 1014.1 |
| 20260503204051 | 11 | 224 | 0.0 | 0.0 | 0.00 | 0.00 | 0.00 | 54 | 1014.1 |
| 20260503203846 | 11 | 255 | 0.0 | 0.0 | 0.00 | 0.00 | 0.00 | 54 | 1014.2 |
| 20260503203803 | 11 | 262 | 0.0 | 0.0 | 0.00 | 0.00 | 0.00 | 54 | 1014.2 |
| 20260503203647 | 11 | 293 | 0.0 | 0.0 | 0.00 | 0.00 | 0.00 | 53 | 1014.2 |
| 20260503203442 | 11 | 325 | 0.0 | 0.0 | 0.00 | 0.00 | 0.00 | 53 | 1014.1 |
| 20260503203354 | 11 | 325 | 0.0 | 0.0 | 0.00 | 0.00 | 0.00 | 52 | 1014.1 |
| 20260503203341 | 11 | 325 | 0.0 | 0.0 | 0.00 | 0.00 | 0.00 | 52 | 1014.1 |
| 20260503202838 | 12 | 325 | 0.0 | 0.0 | 0.00 | 0.00 | 0.00 | 52 | 1014.2 |
| 20260503202804 | 12 | 325 | 0.0 | 0.0 | 0.00 | 0.00 | 0.00 | 52 | 1014.1 |
| 20260503202637 | 12 | 325 | 0.0 | 4.8 | 0.00 | 0.00 | 0.00 | 52 | 1014.1 |
| 20260503202436 | 12 | 321 | 1.6 | 9.7 | 0.00 | 0.00 | 0.00 | 51 | 1014.2 |
| 20260503202304 | 12 | 317 | 1.6 | 9.7 | 0.00 | 0.00 | 0.00 | 51 | 1014.1 |
| 20260503202236 | 12 | 318 | 1.6 | 9.7 | 0.00 | 0.00 | 0.00 | 51 | 1014.1 |
| 20260503202142 | 12 | 307 | 1.6 | 9.7 | 0.00 | 0.00 | 0.00 | 50 | 1014.1 |
| 20260503201806 | 12 | 225 | 3.2 | 11.3 | 0.00 | 0.00 | 0.00 | 50 | 1013.9 |
| 20260503201639 | 12 | 263 | 4.8 | 14.5 | 0.00 | 0.00 | 0.00 | 50 | 1014.0 |
| 20260503201536 | 12 | 227 | 4.8 | 16.1 | 0.00 | 0.00 | 0.00 | 50 | 1014.0 |
| 20260503201454 | 12 | 282 | 6.4 | 16.1 | 0.00 | 0.00 | 0.00 | 50 | 1013.9 |
| 20260503201440 | 12 | 292 | 6.4 | 16.1 | 0.00 | 0.00 | 0.00 | 50 | 1013.9 |
| 20260503201349 | 12 | 286 | 8.0 | 19.3 | 0.00 | 0.00 | 0.00 | 49 | 1014.0 |
| 20260503200632 | 12 | 176 | 9.7 | 19.3 | 0.00 | 0.00 | 0.00 | 49 | 1013.8 |
| 20260503200433 | 12 | 228 | 9.7 | 19.3 | 0.00 | 0.00 | 0.00 | 49 | 1013.8 |
| 20260503200302 | 12 | 239 | 9.7 | 19.3 | 0.00 | 0.00 | 0.00 | 49 | 1013.8 |
| 20260503200234 | 12 | 205 | 9.7 | 19.3 | 0.00 | 0.00 | 0.00 | 49 | 1013.8 |
| 20260503200033 | 12 | 248 | 9.7 | 19.3 | 0.00 | 0.00 | 0.00 | 49 | 1013.7 |
| 20260503195835 | 12 | 221 | 11.3 | 17.7 | 0.00 | 0.00 | 0.00 | 49 | 1013.7 |
| 20260503195804 | 12 | 201 | 11.3 | 17.7 | 0.00 | 0.00 | 0.00 | 49 | 1013.7 |
| 20260503195707 | 12 | 205 | 11.3 | 17.7 | 0.00 | 0.00 | 0.00 | 49 | 1013.7 |
| 20260503195608 | 12 | 221 | 9.7 | 17.7 | 0.00 | 0.00 | 0.00 | 49 | 1013.7 |
| 20260503195456 | 12 | 231 | 9.7 | 17.7 | 0.00 | 0.00 | 0.00 | 49 | 1013.8 |
| 20260503195431 | 12 | 236 | 9.7 | 17.7 | 0.00 | 0.00 | 0.00 | 49 | 1013.8 |
| 20260503195032 | 12 | 226 | 9.7 | 17.7 | 0.00 | 0.00 | 0.00 | 49 | 1013.7 |
| 20260503194649 | 12 | 235 | 8.0 | 17.7 | 0.00 | 0.00 | 0.00 | 49 | 1013.7 |
| 20260503194547 | 12 | 246 | 9.7 | 17.7 | 0.00 | 0.00 | 0.00 | 50 | 1013.7 |
| 20260503194507 | 12 | 238 | 8.0 | 17.7 | 0.00 | 0.00 | 0.00 | 50 | 1013.7 |
| 20260503194033 | 12 | 209 | 9.7 | 17.7 | 0.00 | 0.00 | 0.00 | 50 | 1013.7 |
| 20260503193836 | 12 | 221 | 9.7 | 17.7 | 0.00 | 0.00 | 0.00 | 50 | 1013.6 |
| 20260503193806 | 12 | 236 | 9.7 | 17.7 | 0.00 | 0.00 | 0.00 | 50 | 1013.6 |
| 20260503193634 | 12 | 263 | 9.7 | 17.7 | 0.00 | 0.00 | 0.00 | 50 | 1013.7 |
| 20260503193433 | 12 | 218 | 9.7 | 17.7 | 0.00 | 0.00 | 0.00 | 50 | 1013.7 |
| 20260503193304 | 12 | 204 | 11.3 | 17.7 | 0.00 | 0.00 | 0.00 | 50 | 1013.6 |
| 20260503193233 | 12 | 218 | 11.3 | 17.7 | 0.00 | 0.00 | 0.00 | 50 | 1013.6 |
| 20260503193132 | 12 | 248 | 9.7 | 16.1 | 0.00 | 0.00 | 0.00 | 50 | 1013.6 |
| 20260503193033 | 12 | 236 | 9.7 | 14.5 | 0.00 | 0.00 | 0.00 | 50 | 1013.6 |
| 20260503192634 | 12 | 243 | 9.7 | 14.5 | 0.00 | 0.00 | 0.00 | 50 | 1013.6 |
| 20260503192441 | 12 | 259 | 9.7 | 14.5 | 0.00 | 0.00 | 0.00 | 50 | 1013.6 |
| 20260503192356 | 12 | 211 | 9.7 | 16.1 | 0.00 | 0.00 | 0.00 | 50 | 1013.6 |
| 20260503192338 | 12 | 223 | 9.7 | 16.1 | 0.00 | 0.00 | 0.00 | 50 | 1013.6 |
| 20260503191835 | 12 | 221 | 9.7 | 16.1 | 0.00 | 0.00 | 0.00 | 50 | 1013.5 |
| 20260503191803 | 12 | 220 | 11.3 | 16.1 | 0.00 | 0.00 | 0.00 | 50 | 1013.6 |
| 20260503191633 | 12 | 208 | 11.3 | 17.7 | 0.00 | 0.00 | 0.00 | 50 | 1013.6 |
| 20260503191434 | 12 | 222 | 11.3 | 17.7 | 0.00 | 0.00 | 0.00 | 51 | 1013.6 |
| 20260503191304 | 12 | 232 | 11.3 | 17.7 | 0.00 | 0.00 | 0.00 | 51 | 1013.5 |
| 20260503191234 | 12 | 206 | 11.3 | 17.7 | 0.00 | 0.00 | 0.00 | 51 | 1013.5 |
| 20260503191034 | 12 | 242 | 11.3 | 17.7 | 0.00 | 0.00 | 0.00 | 51 | 1013.6 |
| 20260503190850 | 12 | 247 | 11.3 | 17.7 | 0.00 | 0.00 | 0.00 | 51 | 1013.6 |
| 20260503190828 | 12 | 232 | 11.3 | 17.7 | 0.00 | 0.00 | 0.00 | 51 | 1013.6 |
| 20260503190749 | 12 | 248 | 11.3 | 17.7 | 0.00 | 0.00 | 0.00 | 52 | 1013.6 |
| 20260503190644 | 12 | 234 | 11.3 | 17.7 | 0.00 | 0.03 | 0.00 | 52 | 1013.6 |
| 20260503190604 | 12 | 235 | 11.3 | 17.7 | 0.00 | 0.03 | 0.00 | 52 | 1013.6 |
| 20260503185835 | 12 | 234 | 9.7 | 17.7 | 0.00 | 0.03 | 0.00 | 52 | 1013.5 |
| 20260503185803 | 12 | 232 | 9.7 | 17.7 | 0.00 | 0.03 | 0.00 | 52 | 1013.5 |
| 20260503185634 | 12 | 228 | 9.7 | 17.7 | 0.00 | 0.03 | 0.00 | 52 | 1013.5 |
| 20260503185433 | 12 | 228 | 8.0 | 17.7 | 0.00 | 0.03 | 0.00 | 52 | 1013.5 |
| 20260503185304 | 12 | 232 | 8.0 | 17.7 | 0.00 | 0.03 | 0.00 | 52 | 1013.4 |
| 20260503185234 | 12 | 219 | 8.0 | 17.7 | 0.00 | 0.03 | 0.00 | 52 | 1013.4 |
| 20260503185034 | 12 | 235 | 8.0 | 17.7 | 0.00 | 0.03 | 0.00 | 52 | 1013.5 |
| 20260503184835 | 12 | 241 | 8.0 | 17.7 | 0.00 | 0.03 | 0.00 | 52 | 1013.4 |
| 20260503184806 | 12 | 232 | 8.0 | 17.7 | 0.00 | 0.03 | 0.00 | 52 | 1013.4 |
| 20260503184658 | 12 | 250 | 9.7 | 16.1 | 0.00 | 0.03 | 0.00 | 52 | 1013.4 |
| 20260503184554 | 12 | 228 | 11.3 | 17.7 | 0.00 | 0.03 | 0.00 | 52 | 1013.4 |
| 20260503184234 | 12 | 215 | 11.3 | 17.7 | 0.00 | 0.03 | 0.00 | 52 | 1013.4 |
| 20260503184044 | 12 | 223 | 9.7 | 17.7 | 0.00 | 0.03 | 0.00 | 52 | 1013.4 |
| 20260503183945 | 12 | 246 | 9.7 | 17.7 | 0.00 | 0.03 | 0.00 | 52 | 1013.4 |
| 20260503183926 | 12 | 238 | 9.7 | 17.7 | 0.00 | 0.03 | 0.00 | 52 | 1013.4 |
| 20260503183518 | 12 | 240 | 8.0 | 16.1 | 0.00 | 0.03 | 0.00 | 52 | 1013.4 |
| 20260503183432 | 12 | 233 | 8.0 | 16.1 | 0.00 | 0.03 | 0.00 | 52 | 1013.3 |
| 20260503183413 | 12 | 235 | 8.0 | 16.1 | 0.00 | 0.03 | 0.00 | 52 | 1013.3 |
| 20260503183321 | 12 | 174 | 8.0 | 16.1 | 0.00 | 0.03 | 0.00 | 53 | 1013.4 |
| 20260503183221 | 12 | 211 | 9.7 | 17.7 | 0.00 | 0.03 | 0.00 | 52 | 1013.4 |
| 20260503183201 | 12 | 234 | 8.0 | 19.3 | 0.00 | 0.03 | 0.00 | 52 | 1013.4 |
| 20260503183125 | 12 | 246 | 8.0 | 19.3 | 0.00 | 0.03 | 0.00 | 53 | 1013.3 |
| 20260503182741 | 12 | 243 | 9.7 | 19.3 | 0.00 | 0.03 | 0.00 | 52 | 1013.3 |
| 20260503181805 | 12 | 250 | 9.7 | 17.7 | 0.00 | 0.03 | 0.00 | 52 | 1013.2 |
| 20260503181635 | 12 | 201 | 9.7 | 17.7 | 0.00 | 0.03 | 0.00 | 52 | 1013.3 |
| 20260503181433 | 12 | 215 | 8.0 | 17.7 | 0.00 | 0.03 | 0.00 | 52 | 1013.3 |
| 20260503181302 | 12 | 212 | 9.7 | 17.7 | 0.00 | 0.03 | 0.00 | 52 | 1013.2 |
| 20260503181233 | 12 | 215 | 9.7 | 17.7 | 0.00 | 0.03 | 0.00 | 52 | 1013.2 |
| 20260503181032 | 12 | 235 | 9.7 | 17.7 | 0.00 | 0.03 | 0.00 | 52 | 1013.3 |
| 20260503180837 | 12 | 230 | 9.7 | 17.7 | 0.00 | 0.03 | 0.00 | 52 | 1013.2 |
| 20260503180803 | 12 | 201 | 9.7 | 17.7 | 0.00 | 0.03 | 0.00 | 52 | 1013.2 |
| 20260503180633 | 12 | 238 | 9.7 | 17.7 | 0.00 | 0.03 | 0.00 | 53 | 1013.2 |
| 20260503180433 | 12 | 244 | 9.7 | 17.7 | 0.00 | 0.03 | 0.00 | 52 | 1013.1 |
| 20260503180304 | 12 | 246 | 9.7 | 17.7 | 0.00 | 0.03 | 0.00 | 52 | 1013.1 |
| 20260503180234 | 12 | 213 | 9.7 | 17.7 | 0.00 | 0.03 | 0.00 | 52 | 1013.1 |
| 20260503180111 | 13 | 237 | 8.0 | 17.7 | 0.00 | 0.03 | 0.00 | 52 | 1013.1 |
| 20260503180006 | 13 | 249 | 8.0 | 17.7 | 0.00 | 0.03 | 0.00 | 52 | 1013.2 |
| 20260503175948 | 13 | 230 | 8.0 | 17.7 | 0.00 | 0.03 | 0.00 | 52 | 1013.2 |
| 20260503175556 | 13 | 250 | 9.7 | 17.7 | 0.00 | 0.03 | 0.00 | 52 | 1013.1 |
| 20260503175233 | 13 | 254 | 8.0 | 17.7 | 0.00 | 0.03 | 0.00 | 53 | 1013.2 |
| 20260503175032 | 13 | 219 | 9.7 | 17.7 | 0.00 | 0.03 | 0.00 | 52 | 1013.1 |
| 20260503174835 | 13 | 229 | 8.0 | 17.7 | 0.00 | 0.03 | 0.00 | 52 | 1013.0 |
| 20260503174804 | 13 | 221 | 8.0 | 17.7 | 0.00 | 0.03 | 0.00 | 52 | 1013.0 |
| 20260503174633 | 13 | 253 | 8.0 | 17.7 | 0.00 | 0.03 | 0.00 | 52 | 1013.0 |
| 20260503174433 | 13 | 196 | 8.0 | 16.1 | 0.00 | 0.03 | 0.00 | 52 | 1013.0 |
| 20260503174306 | 13 | 188 | 8.0 | 16.1 | 0.00 | 0.03 | 0.00 | 52 | 1013.0 |
| 20260503174236 | 13 | 259 | 8.0 | 20.9 | 0.00 | 0.03 | 0.00 | 52 | 1013.0 |
| 20260503174036 | 13 | 190 | 8.0 | 20.9 | 0.00 | 0.03 | 0.00 | 52 | 1012.9 |
| 20260503173834 | 13 | 197 | 8.0 | 20.9 | 0.00 | 0.03 | 0.00 | 52 | 1012.9 |
| 20260503173806 | 13 | 261 | 8.0 | 20.9 | 0.00 | 0.03 | 0.00 | 52 | 1012.9 |
| 20260503173634 | 13 | 212 | 6.4 | 20.9 | 0.00 | 0.03 | 0.00 | 52 | 1012.9 |
| 20260503173433 | 13 | 207 | 6.4 | 20.9 | 0.00 | 0.03 | 0.00 | 51 | 1012.9 |
| 20260503173303 | 13 | 252 | 4.8 | 20.9 | 0.00 | 0.03 | 0.00 | 51 | 1012.9 |
| 20260503173234 | 13 | 228 | 4.8 | 14.5 | 0.00 | 0.03 | 0.00 | 51 | 1012.9 |
| 20260503173136 | 14 | 235 | 4.8 | 14.5 | 0.00 | 0.03 | 0.00 | 51 | 1012.9 |
| 20260503173033 | 14 | 246 | 3.2 | 14.5 | 0.00 | 0.03 | 0.00 | 50 | 1012.9 |
| 20260503172659 | 14 | 188 | 3.2 | 14.5 | 0.00 | 0.03 | 0.00 | 50 | 1013.0 |
| 20260503172557 | 14 | 236 | 1.6 | 11.3 | 0.00 | 0.03 | 0.00 | 50 | 1012.9 |
| 20260503172232 | 15 | 225 | 1.6 | 9.7 | 0.00 | 0.03 | 0.00 | 49 | 1012.9 |
| 20260503172033 | 15 | 202 | 0.0 | 9.7 | 0.00 | 0.03 | 0.00 | 49 | 1012.9 |
| 20260503171834 | 15 | 248 | 0.0 | 8.0 | 0.00 | 0.03 | 0.00 | 49 | 1012.9 |
| 20260503171804 | 15 | 265 | 0.0 | 0.0 | 0.00 | 0.03 | 0.00 | 50 | 1012.9 |
| 20260503171634 | 15 | 267 | 0.0 | 0.0 | 0.00 | 0.03 | 0.00 | 50 | 1012.9 |
| 20260503171434 | 15 | 266 | 0.0 | 0.0 | 0.00 | 0.03 | 0.00 | 49 | 1012.9 |
| 20260503171303 | 15 | 284 | 0.0 | 0.0 | 0.00 | 0.03 | 0.00 | 49 | 1012.9 |
| 20260503171234 | 15 | 284 | 0.0 | 0.0 | 0.00 | 0.03 | 0.00 | 49 | 1012.9 |
| 20260503171033 | 16 | 284 | 0.0 | 0.0 | 0.00 | 0.03 | 0.00 | 48 | 1012.8 |
| 20260503170932 | 16 | 284 | 0.0 | 0.0 | 0.00 | 0.03 | 0.00 | 47 | 1012.7 |
| 20260503170913 | 16 | 284 | 0.0 | 3.2 | 0.00 | 0.03 | 0.00 | 47 | 1012.7 |
| 20260503170834 | 16 | 292 | 0.0 | 3.2 | 0.00 | 0.03 | 0.00 | 47 | 1012.7 |
| 20260503170745 | 16 | 291 | 0.0 | 3.2 | 0.00 | 0.03 | 0.00 | 45 | 1012.7 |
| 20260503170435 | 16 | 291 | 0.0 | 3.2 | 0.00 | 0.03 | 0.00 | 44 | 1012.8 |
| 20260503160134 | 17 | 20 | 0.0 | 6.4 | 0.00 | 0.03 | 0.00 | 34 | 1012.5 |
| 20260503150835 | 18 | 345 | 0.0 | 8.0 | 0.00 | 0.03 | 0.00 | 35 | 1012.7 |
| 20260503150804 | 18 | 239 | 0.0 | 0.0 | 0.00 | 0.03 | 0.00 | 35 | 1012.7 |
| 20260503150633 | 18 | 234 | 0.0 | 0.0 | 0.00 | 0.03 | 0.00 | 36 | 1012.7 |
| 20260503150435 | 17 | 158 | 0.0 | 0.0 | 0.00 | 0.03 | 0.00 | 36 | 1012.7 |
| 20260503150302 | 17 | 158 | 0.0 | 0.0 | 0.00 | 0.03 | 0.00 | 36 | 1012.7 |
| 20260503150234 | 17 | 158 | 0.0 | 0.0 | 0.00 | 0.03 | 0.00 | 36 | 1012.7 |
| 20260503140234 | 17 | 115 | 0.0 | 11.3 | 0.00 | 0.03 | 0.00 | 36 | 1013.0 |
| 20260503131235 | 17 | 90 | 1.6 | 8.0 | 0.00 | 0.03 | 0.00 | 37 | 1013.3 |
| 20260503131030 | 17 | 302 | 1.6 | 8.0 | 0.00 | 0.03 | 0.00 | 36 | 1013.3 |
| 20260503130840 | 17 | 340 | 1.6 | 8.0 | 0.00 | 0.03 | 0.00 | 36 | 1013.4 |
| 20260503130821 | 17 | 346 | 0.0 | 8.0 | 0.00 | 0.03 | 0.00 | 37 | 1013.3 |
| 20260503130742 | 17 | 20 | 0.0 | 8.0 | 0.00 | 0.03 | 0.00 | 37 | 1013.4 |
| 20260503130353 | 16 | 85 | 0.0 | 8.0 | 0.00 | 0.03 | 0.00 | 37 | 1013.4 |
| 20260503130335 | 16 | 1 | 0.0 | 8.0 | 0.00 | 0.03 | 0.00 | 37 | 1013.4 |
| 20260503120219 | 15 | 99 | 1.6 | 9.7 | 0.00 | 0.03 | 0.00 | 40 | 1013.9 |
| 20260503110806 | 16 | 114 | 0.0 | 8.0 | 0.00 | 0.03 | 0.00 | 44 | 1014.2 |
| 20260503110606 | 16 | 275 | 0.0 | 8.0 | 0.00 | 0.03 | 0.00 | 44 | 1014.2 |
| 20260503110404 | 15 | 94 | 0.0 | 8.0 | 0.00 | 0.03 | 0.00 | 44 | 1014.2 |
| 20260503110305 | 15 | 113 | 0.0 | 8.0 | 0.00 | 0.03 | 0.00 | 44 | 1014.2 |
| 20260503110207 | 15 | 10 | 0.0 | 8.0 | 0.00 | 0.03 | 0.00 | 44 | 1014.1 |
| 20260503100217 | 14 | 71 | 0.0 | 8.0 | 0.00 | 0.03 | 0.00 | 48 | 1014.8 |
| 20260503100124 | 14 | 31 | 0.0 | 8.0 | 0.00 | 0.03 | 0.00 | 48 | 1014.8 |
| 20260503090503 | 12 | 32 | 1.6 | 12.9 | 0.00 | 0.03 | 0.00 | 56 | 1015.5 |
| 20260503090438 | 12 | 75 | 1.6 | 12.9 | 0.00 | 0.03 | 0.00 | 57 | 1015.4 |
| 20260503081137 | 10 | 269 | 4.8 | 14.5 | 0.00 | 0.03 | 0.00 | 69 | 1015.5 |
| 20260503080936 | 10 | 203 | 4.8 | 14.5 | 0.00 | 0.05 | 0.00 | 70 | 1015.5 |
| 20260503080804 | 10 | 99 | 6.4 | 14.5 | 0.00 | 0.05 | 0.00 | 70 | 1015.4 |
| 20260503080736 | 10 | 76 | 6.4 | 14.5 | 0.00 | 0.05 | 0.00 | 70 | 1015.4 |
| 20260503080533 | 10 | 159 | 4.8 | 14.5 | 0.00 | 0.05 | 0.00 | 70 | 1015.4 |
| 20260503080334 | 10 | 144 | 3.2 | 14.5 | 0.00 | 0.05 | 0.00 | 70 | 1015.4 |
| 20260503080304 | 10 | 144 | 4.8 | 14.5 | 0.00 | 0.05 | 0.00 | 71 | 1015.4 |
| 20260503080133 | 10 | 155 | 4.8 | 24.1 | 0.00 | 0.05 | 0.00 | 72 | 1015.4 |
| 20260503072910 | 11 | 65 | 1.6 | 12.9 | 0.00 | 0.05 | 0.00 | 73 | 1015.1 |
| 20260503072852 | 11 | 96 | 1.6 | 12.9 | 0.00 | 0.05 | 0.00 | 73 | 1015.1 |
| 20260503072756 | 11 | 59 | 1.6 | 12.9 | 0.00 | 0.05 | 0.00 | 73 | 1015.0 |
| 20260503072436 | 11 | 122 | 1.6 | 11.3 | 0.00 | 0.05 | 0.00 | 73 | 1015.0 |
| 20260503072046 | 11 | 1 | 1.6 | 11.3 | 0.00 | 0.05 | 0.00 | 75 | 1015.0 |
| 20260503072000 | 11 | 72 | 1.6 | 11.3 | 0.00 | 0.05 | 0.00 | 75 | 1015.1 |
| 20260503071628 | 11 | 122 | 1.6 | 11.3 | 0.00 | 0.05 | 0.00 | 76 | 1014.9 |
| 20260503071536 | 11 | 88 | 0.0 | 11.3 | 0.00 | 0.05 | 0.00 | 78 | 1014.9 |
| 20260503071134 | 11 | 111 | 0.0 | 11.3 | 0.00 | 0.05 | 0.00 | 78 | 1014.9 |
| 20260503071008 | 11 | 126 | 0.0 | 11.3 | 0.00 | 0.05 | 0.00 | 78 | 1014.9 |
| 20260503070925 | 11 | 122 | 0.0 | 0.0 | 0.00 | 0.05 | 0.00 | 78 | 1014.9 |
| 20260503070911 | 11 | 97 | 0.0 | 0.0 | 0.00 | 0.05 | 0.00 | 78 | 1014.9 |
| 20260503070519 | 11 | 65 | 0.0 | 0.0 | 0.00 | 0.05 | 0.00 | 78 | 1014.9 |
| 20260503070455 | 11 | 65 | 0.0 | 0.0 | 0.00 | 0.05 | 0.00 | 77 | 1014.8 |
| 20260503060252 | 11 | 340 | 4.8 | 12.9 | 0.00 | 0.05 | 0.00 | 66 | 1014.0 |
| 20260503055046 | 10 | 318 | 4.8 | 14.5 | 0.00 | 0.05 | 0.00 | 70 | 1013.9 |
| 20260503054715 | 10 | 331 | 4.8 | 14.5 | 0.00 | 0.05 | 0.00 | 71 | 1013.8 |
| 20260503054514 | 10 | 351 | 4.8 | 14.5 | 0.00 | 0.05 | 0.00 | 72 | 1013.8 |
| 20260503054317 | 10 | 321 | 3.2 | 14.5 | 0.00 | 0.05 | 0.00 | 74 | 1013.7 |
| 20260503054305 | 10 | 332 | 3.2 | 14.5 | 0.00 | 0.05 | 0.00 | 74 | 1013.7 |
| 20260503054116 | 10 | 295 | 3.2 | 12.9 | 0.00 | 0.05 | 0.00 | 76 | 1013.7 |
| 20260503053924 | 10 | 317 | 3.2 | 12.9 | 0.00 | 0.05 | 0.00 | 78 | 1013.7 |
| 20260503053847 | 10 | 323 | 1.6 | 9.7 | 0.00 | 0.05 | 0.00 | 79 | 1013.7 |
| 20260503053818 | 10 | 297 | 1.6 | 9.7 | 0.00 | 0.05 | 0.00 | 80 | 1013.7 |
| 20260503053358 | 10 | 327 | 1.6 | 8.0 | 0.00 | 0.05 | 0.00 | 82 | 1013.6 |
| 20260503053348 | 10 | 286 | 1.6 | 8.0 | 0.00 | 0.05 | 0.00 | 82 | 1013.7 |
| 20260503053254 | 10 | 318 | 1.6 | 8.0 | 0.00 | 0.05 | 0.00 | 83 | 1013.7 |
| 20260503053201 | 10 | 335 | 1.6 | 6.4 | 0.00 | 0.05 | 0.00 | 83 | 1013.6 |
| 20260503052819 | 10 | 311 | 0.0 | 6.4 | 0.00 | 0.05 | 0.00 | 84 | 1013.6 |
| 20260503052305 | 9 | 286 | 0.0 | 0.0 | 0.00 | 0.05 | 0.00 | 85 | 1013.7 |
| 20260503052141 | 9 | 166 | 0.0 | 0.0 | 0.00 | 0.05 | 0.00 | 85 | 1013.7 |
| 20260503052045 | 9 | 76 | 0.0 | 0.0 | 0.00 | 0.05 | 0.00 | 85 | 1013.6 |
| 20260503051714 | 9 | 76 | 0.0 | 0.0 | 0.00 | 0.05 | 0.00 | 85 | 1013.6 |
| 20260503051614 | 9 | 77 | 0.0 | 0.0 | 0.00 | 0.05 | 0.00 | 85 | 1013.6 |
| 20260503051304 | 9 | 77 | 0.0 | 0.0 | 0.00 | 0.05 | 0.00 | 84 | 1013.6 |
| 20260503051110 | 9 | 77 | 0.0 | 0.0 | 0.00 | 0.05 | 0.00 | 84 | 1013.6 |
| 20260503050910 | 9 | 76 | 0.0 | 0.0 | 0.00 | 0.05 | 0.00 | 84 | 1013.6 |
| 20260503050803 | 9 | 77 | 0.0 | 0.0 | 0.00 | 0.05 | 0.00 | 84 | 1013.5 |
| 20260503050710 | 9 | 77 | 0.0 | 0.0 | 0.00 | 0.05 | 0.00 | 84 | 1013.5 |
| 20260503050610 | 9 | 77 | 0.0 | 0.0 | 0.00 | 0.05 | 0.00 | 84 | 1013.5 |
| 20260503050508 | 9 | 77 | 0.0 | 0.0 | 0.00 | 0.05 | 0.00 | 84 | 1013.6 |
| 20260503050114 | 9 | 77 | 0.0 | 0.0 | 0.00 | 0.05 | 0.00 | 83 | 1013.7 |
| 20260503045708 | 9 | 77 | 0.0 | 0.0 | 0.00 | 0.05 | 0.00 | 83 | 1013.7 |
| 20260503045509 | 9 | 38 | 0.0 | 0.0 | 0.00 | 0.05 | 0.00 | 83 | 1013.7 |
| 20260503045305 | 9 | 38 | 0.0 | 0.0 | 0.00 | 0.05 | 0.00 | 83 | 1013.7 |
| 20260503045108 | 9 | 38 | 0.0 | 0.0 | 0.00 | 0.05 | 0.00 | 83 | 1013.7 |
| 20260503044909 | 9 | 38 | 0.0 | 0.0 | 0.00 | 0.05 | 0.00 | 83 | 1013.7 |
| 20260503044837 | 9 | 38 | 0.0 | 0.0 | 0.00 | 0.05 | 0.00 | 83 | 1013.6 |
| 20260503044807 | 9 | 38 | 0.0 | 0.0 | 0.00 | 0.05 | 0.00 | 82 | 1013.7 |
| 20260503044305 | 9 | 131 | 0.0 | 0.0 | 0.00 | 0.05 | 0.00 | 81 | 1013.6 |
| 20260503044111 | 9 | 288 | 0.0 | 0.0 | 0.00 | 0.05 | 0.00 | 81 | 1013.6 |
| 20260503044018 | 9 | 288 | 0.0 | 0.0 | 0.00 | 0.05 | 0.00 | 81 | 1013.5 |
| 20260503043951 | 9 | 288 | 0.0 | 0.0 | 0.00 | 0.05 | 0.00 | 81 | 1013.5 |
| 20260503043505 | 9 | 288 | 0.0 | 0.0 | 0.00 | 0.05 | 0.00 | 80 | 1013.5 |
| 20260503043315 | 9 | 288 | 0.0 | 0.0 | 0.00 | 0.05 | 0.00 | 80 | 1013.5 |
| 20260503043304 | 9 | 288 | 0.0 | 0.0 | 0.00 | 0.05 | 0.00 | 80 | 1013.5 |
| 20260503043108 | 9 | 288 | 0.0 | 0.0 | 0.00 | 0.05 | 0.00 | 80 | 1013.5 |
| 20260503042903 | 9 | 269 | 0.0 | 0.0 | 0.00 | 0.05 | 0.00 | 80 | 1013.5 |
| 20260503042802 | 9 | 234 | 0.0 | 0.0 | 0.00 | 0.05 | 0.00 | 80 | 1013.5 |
| 20260503042703 | 9 | 196 | 0.0 | 0.0 | 0.00 | 0.05 | 0.00 | 80 | 1013.5 |
| 20260503042509 | 9 | 196 | 0.0 | 0.0 | 0.00 | 0.05 | 0.00 | 80 | 1013.5 |
| 20260503042413 | 9 | 55 | 0.0 | 0.0 | 0.00 | 0.05 | 0.00 | 80 | 1013.6 |
| 20260503042408 | 9 | 55 | 0.0 | 0.0 | 0.00 | 0.05 | 0.00 | 80 | 1013.6 |
| 20260503041859 | 9 | 55 | 0.0 | 0.0 | 0.00 | 0.05 | 0.00 | 80 | 1013.5 |
| 20260503041802 | 9 | 55 | 0.0 | 0.0 | 0.00 | 0.05 | 0.00 | 80 | 1013.5 |
| 20260503041700 | 9 | 55 | 0.0 | 0.0 | 0.00 | 0.05 | 0.00 | 80 | 1013.4 |
| 20260503041454 | 9 | 51 | 0.0 | 0.0 | 0.00 | 0.05 | 0.00 | 80 | 1013.4 |
| 20260503041305 | 9 | 51 | 0.0 | 0.0 | 0.00 | 0.05 | 0.00 | 80 | 1013.5 |
| 20260503041251 | 9 | 51 | 0.0 | 0.0 | 0.00 | 0.05 | 0.00 | 80 | 1013.5 |
| 20260503041112 | 9 | 51 | 0.0 | 0.0 | 0.00 | 0.05 | 0.00 | 80 | 1013.5 |
| 20260503041012 | 9 | 150 | 0.0 | 0.0 | 0.00 | 0.05 | 0.00 | 79 | 1013.4 |
| 20260503040950 | 9 | 151 | 0.0 | 0.0 | 0.00 | 0.05 | 0.00 | 79 | 1013.4 |
| 20260503040914 | 9 | 151 | 0.0 | 0.0 | 0.00 | 0.05 | 0.00 | 79 | 1013.4 |
| 20260503040532 | 9 | 151 | 0.0 | 0.0 | 0.00 | 0.05 | 0.00 | 79 | 1013.3 |
| 20260503040522 | 9 | 151 | 0.0 | 0.0 | 0.00 | 0.05 | 0.00 | 79 | 1013.3 |
| 20260503040429 | 9 | 151 | 0.0 | 0.0 | 0.00 | 0.05 | 0.00 | 79 | 1013.2 |
| 20260503040109 | 9 | 151 | 0.0 | 0.0 | 0.00 | 0.05 | 0.00 | 79 | 1013.2 |
| 20260503035305 | 9 | 151 | 0.0 | 8.0 | 0.00 | 0.05 | 0.00 | 79 | 1013.1 |
| 20260503035240 | 9 | 151 | 0.0 | 8.0 | 0.00 | 0.05 | 0.00 | 79 | 1013.1 |
| 20260503035039 | 9 | 151 | 0.0 | 8.0 | 0.00 | 0.05 | 0.00 | 79 | 1013.0 |
| 20260503034836 | 9 | 151 | 1.6 | 8.0 | 0.00 | 0.05 | 0.00 | 79 | 1013.0 |
| 20260503034802 | 9 | 151 | 1.6 | 8.0 | 0.00 | 0.05 | 0.00 | 79 | 1013.0 |
| 20260503034643 | 9 | 151 | 1.6 | 8.0 | 0.00 | 0.05 | 0.00 | 79 | 1013.0 |
| 20260503034550 | 9 | 151 | 3.2 | 8.0 | 0.00 | 0.05 | 0.00 | 79 | 1012.9 |
| 20260503034235 | 9 | 151 | 3.2 | 9.7 | 0.00 | 0.05 | 0.00 | 79 | 1012.9 |
| 20260503034131 | 9 | 181 | 4.8 | 9.7 | 0.00 | 0.05 | 0.00 | 79 | 1012.9 |
| 20260503034040 | 9 | 232 | 4.8 | 9.7 | 0.00 | 0.05 | 0.00 | 79 | 1012.8 |
| 20260503034021 | 9 | 232 | 4.8 | 9.7 | 0.00 | 0.05 | 0.00 | 79 | 1012.9 |
| 20260503033939 | 9 | 223 | 4.8 | 9.7 | 0.00 | 0.05 | 0.00 | 79 | 1012.8 |
| 20260503033842 | 9 | 228 | 4.8 | 9.7 | 0.00 | 0.05 | 0.00 | 79 | 1012.8 |
| 20260503033214 | 9 | 217 | 4.8 | 9.7 | 0.00 | 0.05 | 0.00 | 79 | 1012.8 |
| 20260503033117 | 9 | 227 | 3.2 | 9.7 | 0.00 | 0.05 | 0.00 | 80 | 1012.8 |
| 20260503033057 | 9 | 237 | 3.2 | 9.7 | 0.00 | 0.05 | 0.00 | 80 | 1012.8 |
| 20260503032304 | 9 | 257 | 4.8 | 11.3 | 0.00 | 0.05 | 0.00 | 80 | 1012.7 |
| 20260503032231 | 9 | 250 | 4.8 | 12.9 | 0.00 | 0.05 | 0.00 | 80 | 1012.7 |
| 20260503032033 | 9 | 233 | 6.4 | 12.9 | 0.00 | 0.05 | 0.00 | 80 | 1012.7 |
| 20260503031831 | 9 | 221 | 6.4 | 12.9 | 0.00 | 0.05 | 0.00 | 80 | 1012.6 |
| 20260503031804 | 9 | 205 | 6.4 | 12.9 | 0.00 | 0.05 | 0.00 | 80 | 1012.6 |
| 20260503031630 | 9 | 238 | 6.4 | 12.9 | 0.00 | 0.05 | 0.00 | 80 | 1012.5 |
| 20260503031434 | 9 | 198 | 4.8 | 12.9 | 0.00 | 0.05 | 0.00 | 80 | 1012.6 |
| 20260503031303 | 9 | 248 | 4.8 | 12.9 | 0.00 | 0.05 | 0.00 | 80 | 1012.5 |
| 20260503031231 | 9 | 240 | 4.8 | 12.9 | 0.00 | 0.05 | 0.00 | 80 | 1012.5 |
| 20260503031032 | 9 | 240 | 4.8 | 12.9 | 0.00 | 0.05 | 0.00 | 80 | 1012.4 |
| 20260503030837 | 9 | 234 | 4.8 | 12.9 | 0.00 | 0.05 | 0.00 | 80 | 1012.4 |
| 20260503030819 | 9 | 237 | 4.8 | 12.9 | 0.00 | 0.05 | 0.00 | 80 | 1012.4 |
| 20260503030632 | 9 | 247 | 4.8 | 12.9 | 0.00 | 0.05 | 0.00 | 80 | 1012.4 |
| 20260503030433 | 9 | 207 | 6.4 | 12.9 | 0.00 | 0.05 | 0.00 | 80 | 1012.5 |
| 20260503030302 | 9 | 223 | 4.8 | 11.3 | 0.00 | 0.05 | 0.00 | 80 | 1012.5 |
| 20260503030232 | 9 | 242 | 4.8 | 11.3 | 0.00 | 0.05 | 0.00 | 80 | 1012.5 |
| 20260503030031 | 9 | 209 | 6.4 | 11.3 | 0.00 | 0.05 | 0.00 | 81 | 1012.5 |
| 20260503025832 | 9 | 234 | 6.4 | 11.3 | 0.00 | 0.05 | 0.00 | 81 | 1012.6 |
| 20260503025805 | 9 | 240 | 6.4 | 11.3 | 0.00 | 0.05 | 0.00 | 81 | 1012.5 |
| 20260503025631 | 9 | 230 | 6.4 | 11.3 | 0.00 | 0.05 | 0.00 | 81 | 1012.6 |
| 20260503025431 | 9 | 237 | 6.4 | 11.3 | 0.00 | 0.05 | 0.00 | 81 | 1012.6 |
| 20260503025304 | 9 | 237 | 6.4 | 11.3 | 0.00 | 0.05 | 0.00 | 81 | 1012.6 |
| 20260503025233 | 9 | 236 | 6.4 | 11.3 | 0.00 | 0.05 | 0.00 | 81 | 1012.6 |
| 20260503025033 | 9 | 243 | 6.4 | 11.3 | 0.00 | 0.05 | 0.00 | 81 | 1012.6 |
| 20260503024846 | 9 | 235 | 6.4 | 11.3 | 0.00 | 0.05 | 0.00 | 81 | 1012.6 |
| 20260503024829 | 9 | 237 | 6.4 | 12.9 | 0.00 | 0.05 | 0.00 | 81 | 1012.6 |
| 20260503024741 | 9 | 230 | 6.4 | 12.9 | 0.00 | 0.05 | 0.00 | 81 | 1012.6 |
| 20260503024638 | 9 | 202 | 6.4 | 12.9 | 0.00 | 0.05 | 0.00 | 82 | 1012.7 |
| 20260503024601 | 9 | 229 | 4.8 | 12.9 | 0.00 | 0.05 | 0.00 | 82 | 1012.7 |
| 20260503023820 | 9 | 234 | 4.8 | 12.9 | 0.00 | 0.05 | 0.00 | 82 | 1012.8 |
| 20260503023805 | 9 | 223 | 4.8 | 11.3 | 0.00 | 0.05 | 0.00 | 82 | 1012.8 |
| 20260503023621 | 9 | 240 | 4.8 | 11.3 | 0.00 | 0.05 | 0.00 | 82 | 1012.8 |
| 20260503023418 | 9 | 235 | 4.8 | 11.3 | 0.00 | 0.05 | 0.00 | 82 | 1012.8 |
| 20260503023302 | 9 | 231 | 4.8 | 11.3 | 0.00 | 0.05 | 0.00 | 82 | 1012.8 |
| 20260503023219 | 9 | 231 | 4.8 | 11.3 | 0.00 | 0.05 | 0.00 | 82 | 1012.8 |
| 20260503023021 | 9 | 250 | 4.8 | 11.3 | 0.00 | 0.05 | 0.00 | 83 | 1012.8 |
| 20260503022818 | 9 | 230 | 3.2 | 9.7 | 0.00 | 0.05 | 0.00 | 83 | 1012.8 |
| 20260503022805 | 9 | 225 | 3.2 | 9.7 | 0.00 | 0.05 | 0.00 | 83 | 1012.7 |
| 20260503022619 | 9 | 205 | 3.2 | 9.7 | 0.00 | 0.05 | 0.00 | 83 | 1012.8 |
| 20260503022416 | 9 | 238 | 1.6 | 9.7 | 0.00 | 0.05 | 0.00 | 83 | 1012.7 |
| 20260503022304 | 9 | 234 | 1.6 | 9.7 | 0.00 | 0.05 | 0.00 | 83 | 1012.9 |
| 20260503022218 | 9 | 247 | 1.6 | 9.7 | 0.00 | 0.05 | 0.00 | 83 | 1012.9 |
| 20260503022015 | 9 | 257 | 1.6 | 6.4 | 0.00 | 0.05 | 0.00 | 83 | 1012.9 |
| 20260503021816 | 9 | 268 | 3.2 | 9.7 | 0.00 | 0.05 | 0.00 | 83 | 1012.9 |
| 20260503021805 | 9 | 268 | 1.6 | 9.7 | 0.00 | 0.05 | 0.00 | 83 | 1013.0 |
| 20260503021615 | 9 | 268 | 1.6 | 9.7 | 0.00 | 0.05 | 0.00 | 83 | 1012.9 |
| 20260503021414 | 9 | 230 | 3.2 | 9.7 | 0.00 | 0.05 | 0.00 | 82 | 1012.9 |
| 20260503021303 | 9 | 230 | 1.6 | 9.7 | 0.00 | 0.05 | 0.00 | 82 | 1013.0 |
| 20260503021212 | 9 | 259 | 1.6 | 9.7 | 0.00 | 0.05 | 0.00 | 82 | 1013.0 |
| 20260503021013 | 9 | 243 | 1.6 | 9.7 | 0.00 | 0.05 | 0.00 | 82 | 1013.0 |
| 20260503020817 | 9 | 271 | 1.6 | 9.7 | 0.00 | 0.05 | 0.00 | 82 | 1013.0 |
| 20260503020805 | 9 | 282 | 1.6 | 9.7 | 0.00 | 0.05 | 0.00 | 82 | 1013.1 |
| 20260503020616 | 9 | 260 | 0.0 | 9.7 | 0.00 | 0.05 | 0.00 | 82 | 1013.0 |
| 20260503020500 | 9 | 234 | 0.0 | 6.4 | 0.00 | 0.05 | 0.00 | 82 | 1013.0 |
| 20260503020429 | 9 | 233 | 0.0 | 6.4 | 0.00 | 0.05 | 0.00 | 81 | 1013.0 |
| 20260503020404 | 9 | 280 | 0.0 | 6.4 | 0.00 | 0.05 | 0.00 | 82 | 1013.0 |
| 20260503020310 | 9 | 288 | 0.0 | 3.2 | 0.00 | 0.05 | 0.00 | 82 | 1013.0 |
| 20260503020214 | 9 | 256 | 0.0 | 6.4 | 0.00 | 0.05 | 0.00 | 82 | 1012.9 |
| 20260503015918 | 9 | 256 | 0.0 | 6.4 | 0.00 | 0.05 | 0.00 | 82 | 1013.0 |
| 20260503015211 | 9 | 207 | 0.0 | 6.4 | 0.00 | 0.10 | 0.00 | 81 | 1012.8 |
| 20260503015117 | 10 | 240 | 0.0 | 6.4 | 0.00 | 0.10 | 0.00 | 82 | 1012.8 |
| 20260503014806 | 10 | 270 | 0.0 | 0.0 | 0.00 | 0.10 | 0.00 | 81 | 1012.8 |
| 20260503014608 | 10 | 270 | 0.0 | 0.0 | 0.00 | 0.10 | 0.00 | 81 | 1012.9 |
| 20260503014433 | 10 | 270 | 0.0 | 0.0 | 0.00 | 0.10 | 0.00 | 81 | 1013.0 |
| 20260503014404 | 10 | 270 | 0.0 | 0.0 | 0.00 | 0.10 | 0.00 | 81 | 1012.9 |
| 20260503014331 | 10 | 270 | 0.0 | 0.0 | 0.00 | 0.10 | 0.00 | 81 | 1013.1 |
| 20260503014241 | 10 | 271 | 0.0 | 0.0 | 0.00 | 0.10 | 0.00 | 81 | 1013.1 |
| 20260503013934 | 10 | 271 | 0.0 | 0.0 | 0.00 | 0.10 | 0.00 | 81 | 1013.1 |
| 20260503013848 | 10 | 271 | 0.0 | 0.0 | 0.00 | 0.10 | 0.00 | 81 | 1013.2 |
| 20260503013207 | 10 | 271 | 0.0 | 0.0 | 0.00 | 0.10 | 0.00 | 81 | 1013.1 |
| 20260503013008 | 9 | 271 | 0.0 | 0.0 | 0.00 | 0.10 | 0.00 | 81 | 1013.0 |
| 20260503012806 | 10 | 271 | 0.0 | 0.0 | 0.00 | 0.10 | 0.00 | 81 | 1013.0 |
| 20260503012606 | 10 | 271 | 0.0 | 0.0 | 0.00 | 0.10 | 0.00 | 81 | 1013.1 |
| 20260503012408 | 10 | 271 | 0.0 | 0.0 | 0.00 | 0.10 | 0.00 | 81 | 1013.1 |
| 20260503012331 | 10 | 271 | 0.0 | 0.0 | 0.00 | 0.10 | 0.00 | 81 | 1013.1 |
| 20260503012306 | 10 | 271 | 0.0 | 0.0 | 0.00 | 0.10 | 0.00 | 81 | 1013.1 |
| 20260503012208 | 10 | 271 | 0.0 | 0.0 | 0.00 | 0.10 | 0.00 | 81 | 1013.1 |
| 20260503012118 | 10 | 272 | 0.0 | 0.0 | 0.00 | 0.10 | 0.00 | 81 | 1013.1 |
| 20260503011409 | 10 | 272 | 0.0 | 0.0 | 0.00 | 0.10 | 0.00 | 82 | 1013.2 |
| 20260503011301 | 10 | 272 | 0.0 | 0.0 | 0.00 | 0.10 | 0.00 | 82 | 1013.2 |
| 20260503011219 | 10 | 271 | 0.0 | 0.0 | 0.00 | 0.10 | 0.00 | 82 | 1013.3 |
| 20260503011120 | 10 | 272 | 0.0 | 0.0 | 0.00 | 0.13 | 0.00 | 82 | 1013.2 |
| 20260503011018 | 10 | 272 | 0.0 | 0.0 | 0.00 | 0.13 | 0.00 | 82 | 1013.2 |
| 20260503010610 | 9 | 272 | 0.0 | 0.0 | 0.00 | 0.13 | 0.00 | 82 | 1013.2 |
| 20260503010510 | 9 | 272 | 0.0 | 0.0 | 0.00 | 0.13 | 0.00 | 82 | 1013.2 |
| 20260503010443 | 9 | 272 | 0.0 | 0.0 | 0.00 | 0.13 | 0.00 | 82 | 1013.2 |
| 20260503010008 | 9 | 272 | 0.0 | 0.0 | 0.00 | 0.13 | 0.00 | 82 | 1013.3 |
| 20260503005805 | 9 | 272 | 0.0 | 0.0 | 0.00 | 0.13 | 0.00 | 82 | 1013.2 |
| 20260503005703 | 9 | 275 | 0.0 | 3.2 | 0.00 | 0.13 | 0.00 | 82 | 1013.2 |
| 20260503005541 | 9 | 275 | 1.6 | 4.8 | 0.00 | 0.13 | 0.00 | 82 | 1013.2 |
| 20260503005217 | 9 | 275 | 1.6 | 4.8 | 0.00 | 0.13 | 0.00 | 82 | 1013.2 |
| 20260503005119 | 9 | 275 | 1.6 | 4.8 | 0.00 | 0.13 | 0.00 | 82 | 1013.2 |
| 20260503005018 | 9 | 275 | 1.6 | 4.8 | 0.00 | 0.13 | 0.00 | 82 | 1013.2 |
| 20260503004606 | 9 | 273 | 0.0 | 4.8 | 0.00 | 0.13 | 0.00 | 83 | 1013.2 |
| 20260503004406 | 9 | 273 | 1.6 | 6.4 | 0.00 | 0.15 | 0.00 | 83 | 1013.1 |
| 20260503004304 | 9 | 273 | 1.6 | 6.4 | 0.00 | 0.15 | 0.00 | 83 | 1013.1 |
| 20260503004207 | 9 | 273 | 1.6 | 6.4 | 0.00 | 0.15 | 0.00 | 83 | 1013.1 |
| 20260503004021 | 9 | 272 | 1.6 | 6.4 | 0.00 | 0.18 | 0.00 | 83 | 1013.1 |
| 20260503003917 | 9 | 272 | 1.6 | 6.4 | 0.00 | 0.18 | 0.00 | 83 | 1013.1 |
| 20260503003517 | 9 | 251 | 1.6 | 6.4 | 0.00 | 0.20 | 0.00 | 83 | 1013.2 |
| 20260503003448 | 9 | 236 | 0.0 | 6.4 | 0.00 | 0.25 | 0.00 | 83 | 1013.2 |
| 20260503003008 | 9 | 273 | 0.0 | 4.8 | 0.00 | 0.28 | 0.00 | 83 | 1013.2 |
| 20260503002805 | 9 | 273 | 0.0 | 4.8 | 0.00 | 0.30 | 0.00 | 83 | 1013.2 |
| 20260503002606 | 9 | 273 | 0.0 | 4.8 | 0.00 | 0.33 | 0.00 | 83 | 1013.2 |
| 20260503002406 | 9 | 241 | 0.0 | 4.8 | 0.00 | 0.33 | 0.00 | 82 | 1013.3 |
| 20260503002305 | 9 | 239 | 0.0 | 4.8 | 0.00 | 0.33 | 0.00 | 82 | 1013.3 |
| 20260503002211 | 9 | 236 | 0.0 | 0.0 | 0.00 | 0.36 | 0.00 | 82 | 1013.3 |
| 20260503002118 | 9 | 236 | 0.0 | 0.0 | 0.00 | 0.36 | 0.00 | 82 | 1013.3 |
| 20260503002020 | 9 | 275 | 0.0 | 0.0 | 0.00 | 0.36 | 0.00 | 81 | 1013.3 |
| 20260503001716 | 9 | 192 | 0.0 | 0.0 | 0.00 | 0.41 | 0.00 | 81 | 1013.4 |
| 20260503001338 | 10 | 176 | 0.0 | 0.0 | 0.00 | 0.41 | 0.00 | 81 | 1013.4 |
| 20260503001315 | 10 | 176 | 0.0 | 0.0 | 0.00 | 0.41 | 0.00 | 81 | 1013.5 |
| 20260503000815 | 10 | 66 | 0.0 | 0.0 | 0.00 | 0.41 | 0.00 | 81 | 1013.4 |
| 20260503000805 | 10 | 65 | 0.0 | 0.0 | 0.00 | 0.41 | 0.00 | 81 | 1013.4 |
| 20260503000643 | 10 | 65 | 0.0 | 0.0 | 0.00 | 0.41 | 0.00 | 80 | 1013.5 |
| 20260503000538 | 10 | 66 | 0.0 | 0.0 | 0.00 | 0.41 | 0.00 | 80 | 1013.5 |
| 20260503000203 | 10 | 66 | 0.0 | 0.0 | 0.00 | 0.41 | 0.00 | 80 | 1013.6 |
| 20260503000001 | 10 | 65 | 0.0 | 0.0 | 0.00 | 0.41 | 0.00 | 80 | 1013.5 |
| 20260502235812 | 10 | 66 | 0.0 | 0.0 | 0.00 | 0.41 | 0.00 | 79 | 1013.6 |
| 20260502235759 | 10 | 65 | 0.0 | 0.0 | 0.00 | 0.41 | 0.00 | 79 | 1013.6 |
| 20260502235557 | 10 | 67 | 0.0 | 0.0 | 0.00 | 0.41 | 0.00 | 79 | 1013.5 |
| 20260502235401 | 10 | 67 | 0.0 | 0.0 | 0.00 | 0.41 | 0.00 | 79 | 1013.5 |
| 20260502235332 | 10 | 67 | 0.0 | 0.0 | 0.00 | 0.41 | 0.00 | 78 | 1013.4 |
| 20260502235304 | 10 | 67 | 0.0 | 0.0 | 0.00 | 0.41 | 0.00 | 78 | 1013.4 |
| 20260502234813 | 10 | 67 | 0.0 | 1.6 | 0.00 | 0.41 | 0.00 | 77 | 1013.5 |
| 20260502234753 | 10 | 67 | 0.0 | 1.6 | 0.00 | 0.41 | 0.00 | 77 | 1013.5 |
| 20260502234549 | 10 | 67 | 0.0 | 1.6 | 0.00 | 0.41 | 0.00 | 77 | 1013.5 |
| 20260502234350 | 11 | 67 | 0.0 | 8.0 | 0.00 | 0.41 | 0.00 | 76 | 1013.5 |
| 20260502234302 | 11 | 66 | 0.0 | 8.0 | 0.00 | 0.41 | 0.00 | 76 | 1013.5 |
| 20260502234202 | 11 | 66 | 0.0 | 8.0 | 0.00 | 0.41 | 0.00 | 75 | 1013.5 |
| 20260502234100 | 11 | 75 | 0.0 | 8.0 | 0.00 | 0.41 | 0.00 | 74 | 1013.5 |
| 20260502233750 | 11 | 103 | 0.0 | 8.0 | 0.00 | 0.41 | 0.00 | 74 | 1013.5 |
| 20260502233643 | 11 | 32 | 0.0 | 8.0 | 0.00 | 0.41 | 0.00 | 74 | 1013.6 |
| 20260502233534 | 11 | 88 | 0.0 | 4.8 | 0.00 | 0.41 | 0.00 | 72 | 1013.6 |
| 20260502233150 | 11 | 199 | 0.0 | 8.0 | 0.00 | 0.41 | 0.00 | 72 | 1013.5 |
| 20260502233049 | 11 | 200 | 0.0 | 8.0 | 0.00 | 0.41 | 0.00 | 72 | 1013.5 |
| 20260502233006 | 11 | 200 | 0.0 | 8.0 | 0.00 | 0.41 | 0.00 | 71 | 1013.5 |
| 20260502232543 | 11 | 213 | 0.0 | 8.0 | 0.00 | 0.41 | 0.00 | 71 | 1013.6 |
| 20260502232341 | 11 | 222 | 0.0 | 8.0 | 0.00 | 0.41 | 0.00 | 72 | 1013.5 |
| 20260502232301 | 11 | 221 | 0.0 | 8.0 | 0.00 | 0.41 | 0.00 | 72 | 1013.6 |
| 20260502232141 | 11 | 296 | 0.0 | 0.0 | 0.00 | 0.41 | 0.00 | 72 | 1013.7 |
| 20260502231941 | 11 | 351 | 0.0 | 0.0 | 0.00 | 0.41 | 0.00 | 72 | 1013.7 |
| 20260502231854 | 11 | 196 | 0.0 | 0.0 | 0.00 | 0.41 | 0.00 | 72 | 1013.7 |
| 20260502231842 | 11 | 196 | 0.0 | 0.0 | 0.00 | 0.41 | 0.00 | 72 | 1013.7 |
| 20260502231336 | 11 | 196 | 0.0 | 4.8 | 0.00 | 0.41 | 0.00 | 72 | 1013.6 |
| 20260502231302 | 11 | 196 | 0.0 | 6.4 | 0.00 | 0.41 | 0.00 | 72 | 1013.6 |
| 20260502231154 | 11 | 207 | 0.0 | 6.4 | 0.00 | 0.41 | 0.00 | 72 | 1013.5 |
| 20260502231051 | 11 | 273 | 1.6 | 11.3 | 0.00 | 0.43 | 0.00 | 72 | 1013.6 |
| 20260502230738 | 11 | 273 | 1.6 | 11.3 | 0.00 | 0.43 | 0.00 | 71 | 1013.5 |
| 20260502230642 | 11 | 273 | 1.6 | 11.3 | 0.00 | 0.43 | 0.00 | 71 | 1013.6 |
| 20260502230310 | 11 | 282 | 3.2 | 12.9 | 0.00 | 0.43 | 0.00 | 72 | 1013.6 |
| 20260502230223 | 11 | 256 | 3.2 | 12.9 | 0.00 | 0.43 | 0.00 | 72 | 1013.6 |
| 20260502230116 | 11 | 271 | 1.6 | 12.9 | 0.00 | 0.43 | 0.00 | 72 | 1013.6 |